Location: G�rlitz
(51.1670°N, 15.0000°E)
Time: 04:49:19
(UTC+01:00)

BlueWalker 3 - Visible Passes

Search period start: 18 February 2026 00:00
Search period end: 28 February 2026 00:00
Orbit: 451 x 460 km, 53.2° (Epoch: 17 February)

Date Brightness Start Highest point End Pass type
(mag) Time Alt. Az. Time Alt. Az. Time Alt. Az.
24 Feb 3.6 06:17:11 10° SSW 06:20:23 30° SE 06:23:35 10° E visible
25 Feb 3.8 05:41:34 10° SSW 05:44:34 25° SE 05:47:34 10° E visible
26 Feb 4.0 05:06:01 10° S 05:08:45 20° SE 05:11:29 10° E visible
27 Feb 4.1 04:31:44 14° SSE 04:32:57 17° SE 04:35:18 10° E visible
27 Feb 2.1 06:06:19 10° WSW 06:09:54 66° SSE 06:13:29 10° ENE visible
